Location: Cedar Brake
(32.2526°N, 97.8459°W)
Time: 16:20:49
(UTC+00:00)

DELTA 2 R/B (1) - Pass Details

Date: 22 April 2026
Orbit: 787 x 799 km, 39.6° (Epoch: 9 May)

Event Time Altitude Azimuth Distance (km) Brightness Sun altitude
Exits shadow 10:56:34 14° 274° (W) 2,099 5.2 -12.3°
Maximum altitude 11:01:13 49° 346° (NNW) 1,011 4.2 -11.4°
Drops below altitude 10° 11:06:34 10° 61° (ENE) 2,345 7.6 -10.4°
Sets 11:09:08 0° 67° (ENE) 3,276 9.2 -9.9°
